Location: UBC Liquid-Mirror Observatory
(49.2876°N, 122.5728°W)
Time: 12:08:41
(UTC-07:00)

Amateur Radio Satellites - All Passes

Search period start: 01 September 2014 11:38
Search period end: 02 September 2014 11:38
Location: UBC Liquid-Mirror Observatory, 49.2876°N, 122.5728°W

Satellite Date Start Highest point End Downlink Frequencies (MHz)
Time Altitude Azimuth
SO-50 01 Sep 11:41:57 11:46:42 64° 47° (NE) 11:51:30 436.795 FM
UOSAT-12 01 Sep 11:51:34 11:55:02 20° 24° (NNE) 11:58:28 437.025 FM, 437.400 FM
FUNcube-1 01 Sep 12:00:37 12:05:09 73° 286° (WNW) 12:09:44 145.950 - 145.970 MHz USB
Oscar 16 01 Sep 12:09:20 12:12:38 17° 55° (NE) 12:15:56 437.025 USB, Beacon 2401.1428
ISS 01 Sep 12:19:52 12:23:12 80° 342° (NNW) 12:26:33 145.800 FM
Uribyol 2 01 Sep 12:22:14 12:23:48 11° 50° (NE) 12:25:22 436.500 FM
AO-27 01 Sep 12:40:40 12:43:36 15° 53° (NE) 12:46:31 436.795 MHz FM
HO-68 01 Sep 12:44:04 12:49:11 22° 312° (NW) 12:54:18 435.675 MHz FM
JAS-1B 01 Sep 12:51:40 12:59:34 33° 56° (NE) 13:06:37 435.800 - 435.900 CW/SSB
AO-7 01 Sep 12:53:45 12:55:38 11° 24° (NNE) 12:57:30 29.400 - 29.500 MHz
Oscar 19 01 Sep 13:11:10 13:16:07 48° 68° (ENE) 13:21:06 437.125 CW, 437.150 USB
Gurwin Techsat 1B 01 Sep 13:19:08 13:22:14 16° 54° (NE) 13:25:20 435.225 FM
SO-50 01 Sep 13:23:10 13:26:55 23° 246° (WSW) 13:30:41 436.795 FM
AO-Echo 01 Sep 13:24:20 13:28:41 31° 65° (ENE) 13:32:55 ?
MaSat-1 01 Sep 13:25:45 13:30:38 57° 115° (ESE) 13:35:43 437.345 MHz
UOSAT-12 01 Sep 13:31:21 13:36:05 64° 47° (NE) 13:40:45 437.025 FM, 437.400 FM
FUNcube-1 01 Sep 13:39:16 13:40:46 12° 305° (NW) 13:42:17 145.950 - 145.970 MHz USB
Oscar 16 01 Sep 13:46:08 13:51:18 88° 255° (WSW) 13:56:33 437.025 USB, Beacon 2401.1428
ITAMSAT 1 01 Sep 13:47:53 13:52:49 47° 67° (ENE) 13:57:46 435.822 SSB
RS-15 01 Sep 13:51:16 14:01:22 39° 16° (NNE) 14:11:40 29.354 - 29.394 USB, Beacon 29.352 USB
ISS 01 Sep 13:56:51 14:00:09 55° 3° (N) 14:03:26 145.800 FM
Uribyol 2 01 Sep 13:57:12 14:02:15 59° 70° (ENE) 14:07:20 436.500 FM
TMSAT-1 01 Sep 14:07:44 14:12:08 27° 61° (ENE) 14:16:32 436.925 FM
AO-27 01 Sep 14:17:10 14:22:21 82° 73° (ENE) 14:27:33 436.795 MHz FM
AO-7 01 Sep 14:38:51 14:45:47 31° 49° (NE) 14:52:42 29.400 - 29.500 MHz
JAS-1B 01 Sep 14:39:47 14:49:29 81° 255° (WSW) 14:57:58 435.800 - 435.900 CW/SSB
Oscar 19 01 Sep 14:51:17 14:55:41 28° 267° (W) 15:00:07 437.125 CW, 437.150 USB
Gurwin Techsat 1B 01 Sep 14:56:07 15:01:25 82° 73° (ENE) 15:06:46 435.225 FM
AO-Echo 01 Sep 15:02:44 15:07:23 39° 262° (W) 15:11:56 ?
MaSat-1 01 Sep 15:03:29 15:07:59 30° 315° (NW) 15:12:32 437.345 MHz
UOSAT-12 01 Sep 15:12:11 15:15:51 23° 246° (WSW) 15:19:28 437.025 FM, 437.400 FM
ITAMSAT 1 01 Sep 15:28:07 15:32:31 28° 266° (W) 15:36:57 435.822 SSB
Oscar 16 01 Sep 15:28:52 15:31:26 14° 274° (W) 15:34:02 437.025 USB, Beacon 2401.1428
ISS 01 Sep 15:33:40 15:37:00 73° 203° (SSW) 15:40:19 145.800 FM
Uribyol 2 01 Sep 15:38:08 15:42:07 22° 268° (W) 15:46:07 436.500 FM
TMSAT-1 01 Sep 15:46:38 15:51:47 52° 260° (W) 15:56:59 436.925 FM
Uosat F 01 Sep 15:54:31 15:59:17 46° 67° (ENE) 16:04:04 435.120 FM
AO-27 01 Sep 15:59:25 16:02:31 16° 272° (W) 16:05:38 436.795 MHz FM
Sapphire 01 Sep 16:02:44 16:06:03 17° 105° (ESE) 16:09:22 437.095 MHz 1200 baud AX-25 AFSK
RS-15 01 Sep 16:04:39 16:15:43 76° 46° (NE) 16:27:10 29.354 - 29.394 USB, Beacon 29.352 USB
JAS-2 01 Sep 16:27:55 16:31:16 16° 55° (NE) 16:34:29 435.800 - 435.900 CW/SSB, 435.910 FM
AO-7 01 Sep 16:29:28 16:37:49 83° 251° (WSW) 16:46:13 29.400 - 29.500 MHz
PCSat 01 Sep 16:30:21 16:34:57 29° 111° (ESE) 16:39:36 145.825 MHz
JAS-1B 01 Sep 16:34:00 16:40:58 22° 273° (W) 16:47:25 435.800 - 435.900 CW/SSB
Gurwin Techsat 1B 01 Sep 16:38:50 16:42:04 16° 272° (W) 16:45:20 435.225 FM
MaSat-1 01 Sep 16:45:39 16:46:38 11° 337° (NNW) 16:47:37 437.345 MHz
ISS 01 Sep 17:11:04 17:13:18 17° 221° (SW) 17:15:32 145.800 FM
Hamsat 01 Sep 17:17:39 17:21:22 29° 65° (ENE) 17:25:07 145.90 MHz
OPAL 01 Sep 17:19:17 17:24:05 36° 99° (E) 17:28:51 ?
Uosat F 01 Sep 17:34:03 17:38:16 27° 266° (W) 17:42:32 435.120 FM
Sapphire 01 Sep 17:43:18 17:48:44 90° 304° (WNW) 17:54:12 437.095 MHz 1200 baud AX-25 AFSK
JAS-2 01 Sep 18:09:50 18:15:46 86° 74° (ENE) 18:21:10 435.800 - 435.900 CW/SSB, 435.910 FM
PCSat 01 Sep 18:12:47 18:18:06 56° 311° (NW) 18:23:28 145.825 MHz
RS-15 01 Sep 18:17:31 18:27:21 39° 251° (WSW) 18:37:32 29.354 - 29.394 USB, Beacon 29.352 USB
SO-67 01 Sep 18:19:23 18:21:36 16° 64° (ENE) 18:23:50 435.3500 MHz FM
AO-7 01 Sep 18:26:03 18:31:52 20° 272° (W) 18:37:43 29.400 - 29.500 MHz
Hamsat 01 Sep 18:53:15 18:57:14 35° 264° (W) 19:01:16 145.90 MHz
OPAL 01 Sep 18:58:09 19:03:00 39° 297° (WNW) 19:07:48 ?
STRAND 1 01 Sep 19:06:52 19:10:52 23° 92° (E) 19:14:51 ?
Sapphire 01 Sep 19:28:31 19:32:54 24° 327° (NNW) 19:37:18 437.095 MHz 1200 baud AX-25 AFSK
HO-68 01 Sep 19:41:44 19:47:43 30° 54° (NE) 19:53:44 435.675 MHz FM
SO-67 01 Sep 19:51:03 19:54:22 42° 262° (W) 19:57:42 435.3500 MHz FM
JAS-2 01 Sep 19:58:06 20:01:31 16° 271° (W) 20:04:47 435.800 - 435.900 CW/SSB, 435.910 FM
PCSat 01 Sep 19:59:03 20:02:44 18° 335° (NNW) 20:06:26 145.825 MHz
MaSat-1 01 Sep 20:03:41 20:05:33 12° 26° (NNE) 20:07:21 437.345 MHz
STRAND 1 01 Sep 20:45:25 20:50:25 57° 291° (WNW) 20:55:25 ?
UKube-1 01 Sep 20:49:50 20:53:40 31° 65° (ENE) 20:57:30 145.840 MHz, 145.915 MHz
Oscar 11 01 Sep 20:54:04 20:57:28 23° 63° (ENE) 21:00:53 145.825 FM, Beacon 2401.500 USB
Sapphire 01 Sep 21:16:12 21:18:23 12° 352° (N) 21:20:33 437.095 MHz 1200 baud AX-25 AFSK
FUNcube-1 01 Sep 21:26:20 21:29:24 20° 61° (ENE) 21:32:31 145.950 - 145.970 MHz USB
HO-68 01 Sep 21:27:48 21:34:55 71° 255° (WSW) 21:42:05 435.675 MHz FM
MaSat-1 01 Sep 21:39:26 21:43:58 41° 50° (NE) 21:47:57 437.345 MHz
PCSat 01 Sep 21:46:32 21:48:28 12° 1° (N) 21:50:25 145.825 MHz
KITSAT 1 01 Sep 22:21:50 22:27:32 22° 103° (ESE) 22:33:14 435.175 FM
UKube-1 01 Sep 22:25:56 22:29:50 32° 263° (W) 22:33:46 145.840 MHz, 145.915 MHz
STRAND 1 01 Sep 22:27:21 22:28:35 11° 310° (NW) 22:29:49 ?
Oscar 11 01 Sep 22:29:13 22:33:24 46° 261° (W) 22:37:38 145.825 FM, Beacon 2401.500 USB
Saudisat 1A 01 Sep 22:59:59 23:04:21 66° 126° (SE) 23:08:45 436.775 MHz
Sapphire 01 Sep 23:01:09 23:04:15 15° 19° (NNE) 23:07:20 437.095 MHz 1200 baud AX-25 AFSK
FUNcube-1 01 Sep 23:01:20 23:05:27 52° 260° (W) 23:09:41 145.950 - 145.970 MHz USB
MaSat-1 01 Sep 23:16:50 23:20:47 29° 253° (WSW) 23:24:17 437.345 MHz
HO-68 01 Sep 23:20:10 23:23:56 15° 276° (W) 23:27:42 435.675 MHz FM
PCSat 01 Sep 23:30:18 23:34:10 19° 27° (NNE) 23:38:01 145.825 MHz
AO-40 01 Sep 23:53:54 02:00:23 17° 125° (SE) 03:08:21 Beacon 2401.320
Oscar 10/S400 02 Sep 00:00:29 00:37:34 49° 191° (S) 07:52:57 145.825 - 145.975 CW/USB, Beacon 145.810 USB
KITSAT 1 02 Sep 00:13:41 00:21:47 83° 124° (SE) 00:29:55 435.175 FM
Saudisat 1A 02 Sep 00:40:34 00:44:19 26° 326° (NNW) 00:48:05 436.775 MHz
Sapphire 02 Sep 00:44:07 00:49:13 39° 43° (NE) 00:54:18 437.095 MHz 1200 baud AX-25 AFSK
PCSat 02 Sep 01:13:16 01:18:41 62° 50° (NE) 01:24:04 145.825 MHz
Oscar 19 02 Sep 01:20:33 01:22:30 12° 85° (E) 01:24:25 437.125 CW, 437.150 USB
Oscar 16 02 Sep 01:54:09 01:58:23 25° 92° (E) 02:02:35 437.025 USB, Beacon 2401.1428
ITAMSAT 1 02 Sep 01:58:38 02:00:24 12° 85° (E) 02:02:09 435.822 SSB
Uribyol 2 02 Sep 02:06:59 02:09:56 15° 88° (E) 02:12:52 436.500 FM
KITSAT 1 02 Sep 02:10:39 02:18:04 37° 329° (NNW) 02:25:29 435.175 FM
JAS-1B 02 Sep 02:23:23 02:28:22 22° 86° (E) 02:32:53 435.800 - 435.900 CW/SSB
Saudisat 1A 02 Sep 02:23:37 02:25:23 12° 350° (N) 02:27:09 436.775 MHz
AO-27 02 Sep 02:26:41 02:30:36 21° 91° (E) 02:34:30 436.795 MHz FM
Sapphire 02 Sep 02:27:35 02:32:45 45° 244° (WSW) 02:37:53 437.095 MHz 1200 baud AX-25 AFSK
PCSat 02 Sep 02:57:18 03:01:44 26° 250° (WSW) 03:06:09 145.825 MHz
Oscar 19 02 Sep 02:57:28 03:02:43 78° 104° (ESE) 03:07:54 437.125 CW, 437.150 USB
OPAL 02 Sep 03:01:39 03:05:06 19° 53° (NE) 03:08:36 ?
AO-Echo 02 Sep 03:05:13 03:09:46 47° 99° (E) 03:14:18 ?
Gurwin Techsat 1B 02 Sep 03:08:39 03:12:55 24° 92° (E) 03:17:10 435.225 FM
Oscar 16 02 Sep 03:32:59 03:38:04 54° 291° (WNW) 03:43:06 437.025 USB, Beacon 2401.1428
ITAMSAT 1 02 Sep 03:35:34 03:40:47 77° 104° (ESE) 03:45:58 435.822 SSB
SO-50 02 Sep 03:41:09 03:45:25 44° 121° (ESE) 03:49:48 436.795 FM
Uribyol 2 02 Sep 03:44:53 03:50:07 86° 286° (WNW) 03:55:20 436.500 FM
TMSAT-1 02 Sep 03:58:02 04:03:08 46° 98° (E) 04:08:12 436.925 FM
Saudisat 1A 02 Sep 04:04:40 04:06:51 13° 15° (NNE) 04:09:02 436.775 MHz
AO-27 02 Sep 04:05:25 04:10:33 62° 290° (WNW) 04:15:40 436.795 MHz FM
KITSAT 1 02 Sep 04:09:43 04:16:02 24° 358° (N) 04:22:21 435.175 FM
JAS-1B 02 Sep 04:13:05 04:20:00 72° 290° (WNW) 04:25:55 435.800 - 435.900 CW/SSB
AO-7 02 Sep 04:26:57 04:33:39 26° 91° (E) 04:40:18 29.400 - 29.500 MHz
Oscar 19 02 Sep 04:37:53 04:41:29 19° 303° (WNW) 04:45:05 437.125 CW, 437.150 USB
OPAL 02 Sep 04:38:16 04:43:22 84° 253° (WSW) 04:48:34 ?
AO-Echo 02 Sep 04:44:31 04:48:20 25° 298° (WNW) 04:52:09 ?
Gurwin Techsat 1B 02 Sep 04:48:03 04:53:15 56° 291° (WNW) 04:58:25 435.225 FM
Oscar 16 02 Sep 05:15:16 05:16:19 11° 311° (NW) 05:17:22 437.025 USB, Beacon 2401.1428
ITAMSAT 1 02 Sep 05:16:06 05:19:44 20° 303° (WNW) 05:23:21 435.822 SSB
SO-50 02 Sep 05:21:56 05:26:06 35° 322° (NW) 05:30:24 436.795 FM
Uribyol 2 02 Sep 05:25:46 05:28:52 16° 306° (NW) 05:31:59 436.500 FM
UOSAT-12 02 Sep 05:26:14 05:30:36 42° 121° (ESE) 05:35:03 437.025 FM, 437.400 FM
Uosat F 02 Sep 05:36:21 05:41:21 68° 103° (ESE) 05:46:20 435.120 FM
TMSAT-1 02 Sep 05:38:18 05:42:54 31° 298° (WNW) 05:47:29 436.925 FM
Saudisat 1A 02 Sep 05:43:40 05:47:44 34° 38° (NE) 05:51:45 436.775 MHz
AO-27 02 Sep 05:47:11 05:49:05 12° 310° (NW) 05:50:59 436.795 MHz FM
JAS-1B 02 Sep 06:05:04 06:09:15 17° 316° (NW) 06:13:07 435.800 - 435.900 CW/SSB
KITSAT 1 02 Sep 06:07:00 06:14:11 33° 27° (NNE) 06:21:20 435.175 FM
AO-7 02 Sep 06:19:02 06:27:22 82° 292° (WNW) 06:35:38 29.400 - 29.500 MHz
OPAL 02 Sep 06:20:44 06:23:03 13° 272° (W) 06:25:24 ?
STRAND 1 02 Sep 06:26:40 06:31:34 50° 68° (ENE) 06:36:29 ?
Gurwin Techsat 1B 02 Sep 06:30:36 06:32:08 11° 311° (NW) 06:33:40 435.225 FM
Hamsat 02 Sep 06:34:38 06:38:33 31° 95° (E) 06:42:24 145.90 MHz
RS-15 02 Sep 06:35:58 06:44:30 27° 103° (ESE) 06:52:55 29.354 - 29.394 USB, Beacon 29.352 USB
JAS-2 02 Sep 06:58:34 07:03:40 49° 100° (E) 07:09:07 435.800 - 435.900 CW/SSB, 435.910 FM
SO-50 02 Sep 07:05:27 07:08:01 14° 346° (NNW) 07:10:36 436.795 FM
UOSAT-12 02 Sep 07:06:27 07:10:49 38° 321° (NW) 07:15:16 437.025 FM, 437.400 FM
SO-67 02 Sep 07:12:51 07:13:28 10° 88° (E) 07:14:05 435.3500 MHz FM
Uosat F 02 Sep 07:16:02 07:19:41 21° 302° (WNW) 07:23:20 435.120 FM
Saudisat 1A 02 Sep 07:23:13 07:27:26 44° 238° (WSW) 07:31:38 436.775 MHz
KITSAT 1 02 Sep 08:02:37 08:10:46 83° 52° (NE) 08:18:52 435.175 FM
STRAND 1 02 Sep 08:06:48 08:11:01 26° 267° (W) 08:15:16 ?
Hamsat 02 Sep 08:10:38 08:14:30 31° 294° (WNW) 08:18:19 145.90 MHz
AO-7 02 Sep 08:12:43 08:19:05 26° 315° (NW) 08:25:26 29.400 - 29.500 MHz
SO-67 02 Sep 08:43:29 08:46:56 64° 286° (WNW) 08:50:21 435.3500 MHz FM
JAS-2 02 Sep 08:44:15 08:48:38 28° 298° (WNW) 08:53:14 435.800 - 435.900 CW/SSB, 435.910 FM
RS-15 02 Sep 08:44:17 08:55:20 87° 127° (SE) 09:06:20 29.354 - 29.394 USB, Beacon 29.352 USB
SO-50 02 Sep 08:48:09 08:50:31 14° 11° (N) 08:52:55 436.795 FM
UOSAT-12 02 Sep 08:49:30 08:52:16 15° 344° (NNW) 08:55:04 437.025 FM, 437.400 FM
HO-68 02 Sep 08:52:05 08:56:47 18° 87° (E) 09:01:27 435.675 MHz FM
ISS 02 Sep 09:55:56 09:58:19 18° 140° (SE) 10:00:42 145.800 FM
KITSAT 1 02 Sep 09:58:52 10:05:21 28° 254° (WSW) 10:11:49 435.175 FM
UKube-1 02 Sep 10:09:40 10:13:33 31° 96° (E) 10:17:24 145.840 MHz, 145.915 MHz
Oscar 11 02 Sep 10:12:56 10:16:31 24° 93° (E) 10:20:04 145.825 FM, Beacon 2401.500 USB
SO-50 02 Sep 10:28:24 10:32:35 29° 35° (NE) 10:36:48 436.795 FM
UOSAT-12 02 Sep 10:32:00 10:34:21 13° 9° (N) 10:36:42 437.025 FM, 437.400 FM
HO-68 02 Sep 10:38:21 10:45:34 83° 107° (ESE) 10:52:44 435.675 MHz FM
FUNcube-1 02 Sep 10:46:23 10:50:03 24° 93° (E) 10:53:45 145.950 - 145.970 MHz USB
RS-15 02 Sep 10:58:40 11:08:59 44° 336° (NNW) 11:19:24 29.354 - 29.394 USB, Beacon 29.352 USB
JAS-1B 02 Sep 11:26:54 11:29:52 12° 38° (NE) 11:32:43 435.800 - 435.900 CW/SSB
ISS 02 Sep 11:31:20 11:34:40 79° 158° (SSE) 11:38:00 145.800 FM
